Theta_e
346 345 347 350 346 345 344 343 352 352 353 351 348 343 342 337 334 332 329 329 328 324
345 342 348 345 345 348 343 342 348 349 347 341 338 337 336 330 330 328 328 327 327 323
349 344 345 347 341 345 343 348 347 344 338 337 334 332 332 329 327 326 323 321 322 321
347 348 347 344 345 345 347 347 344 337 334 331 329 328 327 326 323 320 318 318 317 318
344 347 343 339 341 343 339 338 336 330 325 324 323 323 318 318 316 316 314 315 315 314
341 344 336 335 338 334 331 329 325 323 322 318 316 314 312 312 312 314 313 312 311 311
339 342 336 330 329 327 327 320 320 319 316 312 308 306 306 307 309 309 308 309 309 308
341 338 331 327 324 322 319 319 320 318 312 310 311 306 306 306 307 308 307 309 305 305
341 333 327 324 321 319 318 318 318 315 316 308 309 303 304 306 307 306 305 304 304 303
336 327 324 321 320 317 317 317 313 313 311 309 305 300 300 303 306 305 304 304 304 301
327 324 322 320 318 317 317 312 313 309 306 308 302 298 298 301 305 304 304 304 305 304
324 321 320 318 317 316 314 312 310 307 306 302 299 297 297 302 303 303 302 302 302 301
323 320 318 317 316 315 313 311 311 307 305 299 299 296 297 301 301 299 298 298 297 293
321 319 318 316 314 312 310 311 306 303 301 299 299 300 296 297 302 299 298 297 296 295
Wind_Speed
16 11 12 16 13 11 10 10 14 13 11 10 11 11 10 8 8 9 8 10 7 6
13 13 14 12 10 12 9 6 10 12 12 12 11 11 12 10 11 9 9 11 8 6
16 15 16 17 14 15 10 12 14 13 13 13 13 11 12 11 11 11 9 8 8 7
15 19 17 14 14 15 15 18 18 15 15 14 13 10 11 12 12 14 12 9 10 8
15 15 13 9 14 14 17 15 17 16 15 13 13 13 11 12 9 12 12 11 10 10
13 16 18 12 16 17 18 17 17 17 19 16 14 15 11 11 13 10 9 9 11 10
13 16 13 17 10 17 19 21 20 19 21 19 18 16 12 13 11 10 8 10 10 10
13 15 17 17 19 16 18 20 23 23 20 18 17 15 15 14 9 9 9 11 13 13
17 17 20 19 19 18 15 20 22 20 20 14 13 22 23 18 13 10 12 12 13 12
16 19 19 19 21 17 17 15 20 21 20 21 19 19 16 21 13 11 12 11 10 11
16 18 17 17 20 16 13 14 14 19 18 21 14 27 19 22 16 13 12 12 12 13
18 17 18 18 20 18 16 15 9 15 22 22 17 21 25 22 17 15 15 13 13 12
19 20 19 20 20 21 17 19 14 18 19 23 20 15 19 17 14 16 13 13 14 19
19 20 20 20 19 21 19 17 16 19 17 16 16 16 15 12 14 12 13 11 11 10
Wind_Direction
194 202 203 199 175 182 172 185 158 181 174 171 165 146 138 134 117 124 121 105 92 102
184 188 191 185 152 152 154 164 148 170 160 151 145 144 133 127 124 125 122 99 105 91
198 192 200 195 176 153 157 147 165 157 146 142 137 143 127 127 124 126 106 100 93 101
208 189 200 189 182 167 165 162 164 151 139 137 131 136 126 119 129 111 107 104 103 101
216 199 192 184 174 147 158 146 139 131 121 122 118 114 111 115 108 105 107 112 111 99
211 197 192 196 185 152 133 124 123 125 117 106 95 94 85 91 97 94 102 115 95 98
199 189 143 132 129 137 130 127 127 120 115 112 101 89 83 86 92 102 104 88 87 90
186 153 136 135 133 133 133 139 132 129 123 126 131 125 139 108 106 130 112 93 92 81
156 139 137 136 132 123 148 137 136 130 129 130 120 129 123 129 135 116 112 113 107 109
158 141 142 137 136 135 139 140 133 126 127 131 126 125 133 118 120 126 119 118 112 104
148 144 141 137 124 129 132 136 131 126 136 128 131 131 124 114 118 112 104 98 94 89
143 146 143 134 127 131 118 115 130 127 127 127 134 131 125 120 118 114 98 89 76 90
147 146 144 137 134 128 126 120 145 131 132 129 128 122 107 118 122 116 106 97 82 57
148 145 140 134 132 120 121 128 127 124 126 114 123 119 115 130 121 123 116 113 96 82